Flag for Germany Weather past 2 weeks in Gera, Thuringia, Germany

Now
46 °F

Rain. Low clouds.


Feels Like: 43 °F
Forecast: 36 / 55 °F
Wind: 5 mph from Northwest

Location: Gera-Leumnitz

Current Time: Oct 23, 2014 at 12:27:52 PM

Latest Report: Oct 23, 2014 at 12:00 PM


Visibility: 2 mi

Pressure: 30.19 "Hg

Humidity: 96%

Dew point: 45 °F

Location of GeraLocation

Historic Weather in Gera — Graph

°F

Gera temperature yesterday

Maximum temperature yesterday: 50 °F (at 11:00 PM)
Minimum temperature yesterday: 39 °F (at 8:00 AM)
Average temperature yesterday: 45 °F

Past Weeks' High & Low Weather Summary

 TemperatureHumidityPressure
High76 °F (Oct 9, 4:00 PM)99% (Oct 11, 8:00 AM)30.24 "Hg (Oct 11, 8:00 AM)
Low39 °F (Oct 22, 8:00 AM)49% (Oct 9, 5:00 PM)29.50 "Hg (Oct 21, 9:00 PM)
Average56 °F83%29.90 "Hg
* Reported Oct 8 11:00 AM — Oct 23 11:00 AM, Gera, Weather by CustomWeather, © 2014

Note: Actual official high and low records may vary slightly from our data, if they occured in-between our weather recording intervals... More about our weather records

Advertising

Gera weather history for previous 24 hours

 ConditionsComfort  
Time TempWeatherWind HumidityBarometerVisibility
11:00 AM
Oct 23
46 °FRain. Low clouds.5 mph97%30.17 "Hg2 mi
10:00 AM46 °FDrizzle. Low clouds.6 mph94%30.15 "Hg2 mi
9:00 AM47 °FDrizzle. Low clouds.6 mph90%30.12 "Hg9 mi
8:00 AM46 °FLow clouds.7 mph92%30.10 "Hg6 mi
7:00 AM46 °FLow clouds.6 mph94%30.07 "Hg6 mi
6:00 AM46 °FLow clouds.7 mph96%30.05 "Hg5 mi
5:00 AM47 °FLow clouds.7 mph94%30.03 "Hg6 mi
4:00 AM47 °FLow clouds.8 mph94%30.01 "Hg5 mi
3:00 AM47 °FDrizzle. Low clouds.8 mph95%29.99 "Hg5 mi
2:00 AM48 °FLight freezing rain. Low clouds.6 mph96%29.97 "Hg2 mi
1:00 AM48 °FLight freezing rain. Low clouds.7 mph97%29.95 "Hg3 mi
12:00 AM49 °FLight freezing rain. Low clouds.7 mph96%29.93 "Hg2 mi
11:00 PM
Oct 22
50 °FLight freezing rain. Low clouds.8 mph96%29.90 "Hg1 mi
10:00 PM49 °FLight freezing rain. Low clouds.8 mph97%29.87 "Hg2 mi
9:00 PM49 °FRain. Low clouds.8 mph96%29.82 "Hg4 mi
8:00 PM46 °FRain. Low clouds.9 mph98%29.80 "Hg2 mi
7:00 PM45 °FLight rain. Low clouds.7 mph98%29.80 "Hg2 mi
6:00 PM44 °FRain. Low clouds.7 mph97%29.78 "Hg3 mi
5:00 PM43 °FRain. Low clouds.6 mph96%29.78 "Hg2 mi
4:00 PM42 °FLight rain. Low clouds.7 mph94%29.78 "Hg4 mi
3:00 PM42 °FLight rain. Low clouds.9 mph91%29.78 "Hg5 mi
2:00 PM43 °FRain. Low clouds.9 mph92%29.78 "Hg5 mi
1:00 PM45 °FSprinkles. Overcast.9 mph81%29.77 "Hg9 mi
12:00 PM45 °FOvercast.9 mph79%29.78 "Hg22 mi
Weather by CustomWeather, © 2014

See weather overviewHow to use our weather pages